Weather Roundup
Issued by NWS

Home | Current Version | Previous Version | Graphics & Text | Print | Product List | Glossary Off
Versions: 1 2 3 4 5 6 7 8 9 10 11 12 13 14 15 16 17 18 19 20 21 22 23 24 25 26 27 28 29 30 31 32 33 34 35 36 37 38 39 40 41 42 43 44 45 46 47 48 49 50

000
NZUS93 KARX 160459
HRRWXR

CURRENT HOURLY OBSERVATIONS ACROSS
MUCH OF THE UPPER MISSISSIPPI VALLEY
NATIONAL WEATHER SERVICE LA CROSSE WI
1200 AM CDT WED APR 16 2014


...SOUTHEAST MINNESOTA...


CITY           SKY/WX    TMP DP  RH WIND       PRES   REMARKS
ROCHESTER      CLOUDY    31  19  61 SE10      30.06F WCI  22
ROCHESTER/MAYO CLOUDY    32  14  48 E6        30.08S WCI  26
WINONA         CLOUDY    34  19  55 SE5       30.13S WCI  30
AUSTIN         CLOUDY    30  21  69 SE10      30.04F WCI  21
ALBERT LEA     CLOUDY    34  19  55 SE12      30.02F WCI  25
DODGE CENTER   CLOUDY    34  23  64 E9        30.05F WCI  26
PRESTON        CLOUDY    31  20  63 E6        30.08S WCI  25
OWATONNA       CLOUDY    34  19  55 E13       30.03F WCI  25
FARIBAULT      CLOUDY    36  16  44 E9        30.04F WCI  29
$$

...ELSEWHERE IN MINNESOTA...


CITY           SKY/WX    TMP DP  RH WIND       PRES   REMARKS
MINNEAPOLIS    CLOUDY    34  15  46 SE12      30.06F WCI  25
INTNL FALLS    CLEAR     15   9  76 CALM      30.10R
DULUTH         CLEAR     22   9  57 CALM      30.08S
RED WING       CLOUDY    36  16  44 SE7       30.09S WCI  30
REDWOOD FALLS  CLOUDY    35  18  49 E13       29.94F WCI  26
MANKATO        CLOUDY    34  18  51 SE17      30.01F WCI  23
WORTHINGTON    CLOUDY    34  19  55 E17       29.87F WCI  23
FAIRMONT       MOCLDY    34  21  60 SE18      29.96F WCI  23
$$

...SOUTHWEST WISCONSIN...


CITY           SKY/WX    TMP DP  RH WIND       PRES   REMARKS
LA CROSSE      CLOUDY    32  18  56 E6        30.13F WCI  26
PRAIRIE DU CHI CLEAR     30  20  66 E6        30.13F WCI  24
BOSCOBEL       CLEAR     27  20  75 CALM      30.16F
LONE ROCK      NOT AVBL
PLATTEVILLE    CLEAR     31  20  63 E6        30.15F WCI  25
FORT MC COY    CLOUDY    27  20  76 CALM      30.16S
VIROQUA        FAIR      28  19  70 SE5       30.12S WCI  23
WIS DELLS      PTCLDY    27  19  71 CALM      30.16S
$$

...ELSEWHERE IN WISCONSIN...


CITY           SKY/WX    TMP DP  RH WIND       PRES   REMARKS
MILWAUKEE      CLEAR     28  21  75 CALM      30.21R
MADISON        MOCLDY    27  18  69 CALM      30.18R
GREEN BAY      CLEAR     27  22  81 CALM      30.19R
EAU CLAIRE     NOT AVBL
BLACK RVR FLS  MOCLDY    25  21  83 CALM      30.14F
MEDFORD        CLEAR     24  15  70 S5        30.11R WCI  18
WAUSAU         CLEAR     24  13  62 SE5       30.13R WCI  18
WIS RAPIDS     MOCLDY    23  15  71 CALM      30.17R
MARSHFIELD     CLEAR     26  16  65 CALM      30.13R
RICE LAKE      NOT AVBL
$$

...NORTHEAST IOWA...


CITY           SKY/WX    TMP DP  RH WIND       PRES   REMARKS
WATERLOO       PTCLDY    33  20  58 SE12      30.06F WCI  24
DUBUQUE        CLEAR     29  18  63 SE6       30.13F WCI  23
DECORAH        CLOUDY    30  19  64 E7        30.09S WCI  23
MASON CITY     MOCLDY    32  20  61 E15       30.02F WCI  22
CHARLES CITY   CLOUDY    32  19  59 E13       30.06F WCI  22
OELWEIN        MOCLDY   N/A N/A N/A E10       30.09F
$$

...ELSEWHERE IN IOWA...


CITY           SKY/WX    TMP DP  RH WIND       PRES   REMARKS
DES MOINES     PTCLDY    40  24  53 SE13      29.99F WCI  32
IOWA CITY      CLEAR     33  18  53 SE8       30.13F WCI  26
FORT DODGE     PTCLDY    36  25  64 SE13G18   29.95F WCI  27
MARSHALLTOWN   CLEAR     33  22  63 SE13      30.02F WCI  24
CEDAR RAPIDS   CLEAR     31  18  58 SE12      30.09F WCI  22
$$

...NORTHERN ILLINOIS...


CITY           SKY/WX    TMP DP  RH WIND       PRES   REMARKS
CHICAGO-OHARE  CLEAR     30  19  63 S5        30.20R WCI  25
DUPAGE         CLEAR     29  21  72 S5        30.20R WCI  24
CHICAGO-MIDWAY CLEAR     34  21  59 S5        30.21R WCI  30
MOLINE         CLEAR     27  18  69 E7        30.16S WCI  19
ROCKFORD       CLEAR     29  22  75 SE3       30.20S
STERLING       CLEAR     28  23  80 SE3       30.18S
PEORIA         CLEAR     35  19  52 SE5       30.19S WCI  31
$$

NOTE: "FAIR" INDICATES FEW OR NO CLOUDS BELOW 12,000 FEET WITH NO
SIGNIFICANT WEATHER AND/OR OBSTRUCTIONS TO VISIBILITY. WIND
SPEEDS ARE IN MILES-PER-HOUR.



USA.gov is the U.S. government's official web portal to all federal, state and local government web resources and services.